This demonstration page uses our WeatherBlox Daily Observations layout. Learn more.

Left ArrowRight Arrow

34.74481, -87.66753

Hourly Observations for June 19, 2019

Temp ( °F °C ) Dew Point ( °F °C ) Humidity (%) Winds ( mph kmh ) Pressure ( in mb ) Visibility ( mi km ) Precip ( " mm )
12:46 am 00:46 Cloudy 74 23.3 72 22.2 94 94 SSW 3 6 29.86 1011 10 16 0.00 0.00
12:53 am 00:53 Cloudy 74 23.3 72 22.2 94 94 Calm 29.86 1011 10 16 0.00 0.00
1:53 am 01:53 Clear 73 22.8 71 21.7 94 94 Calm 29.85 1011 10 16 0.00 0.00
2:53 am 02:53 Partly Cloudy 72 22.2 70 21.1 94 94 Calm 29.85 1011 10 16 0.00 0.00
3:53 am 03:53 Partly Cloudy 72 22.2 70 21.1 94 94 S 3 6 29.84 1011 10 16 0.00 0.00
4:53 am 04:53 Mostly Clear 72 22.2 70 21.1 94 94 Calm 29.83 1010 10 16 0.00 0.00
5:53 am 05:53 Sunny 71 21.7 69 20.6 94 94 Calm 29.84 1011 10 16 0.00 0.00
6:53 am 06:53 Sunny 73 22.8 71 21.7 94 94 S 5 7 29.84 1011 10 16 0.00 0.00
7:36 am 07:36 Cloudy 74 23.3 70 21.1 88 88 SSW 6 9 29.85 1011 10 16 0.00 0.00
7:53 am 07:53 Mostly Cloudy 75 23.9 71 21.7 88 88 SSW 7 11 29.85 1011 10 16 0.00 0.00
8:53 am 08:53 Mostly Sunny 80 26.7 71 21.7 74 74 S 7 11 29.84 1011 10 16 0.00 0.00
9:53 am 09:53 Partly Cloudy 84 28.9 72 22.2 67 67 WSW 8 13 29.85 1011 10 16 0.00 0.00
10:53 am 10:53 Partly Cloudy 86 30 70 21.1 59 59 W 10 17 29.85 1011 10 16 0.00 0.00
11:53 am 11:53 Mostly Cloudy 86 30 69 20.6 57 57 SW 15 24 29.83 1010 10 16 0.00 0.00
12:53 pm 12:53 Partly Cloudy 89 31.7 68 20 50 50 WSW 15 24 29.80 1009 10 16 0.00 0.00
1:53 pm 13:53 Partly Cloudy 88 31.1 69 20.6 54 54 SW 13 20 29.77 1008 10 16 0.00 0.00
2:53 pm 14:53 Mostly Cloudy 90 32.2 70 21.1 52 52 SSW 12 19 29.75 1008 10 16 0.00 0.00
3:53 pm 15:53 Mostly Sunny 90 32.2 68 20 48 48 SW 13 20 29.74 1007 10 16 0.00 0.00
4:53 pm 16:53 Partly Cloudy 90 32.2 69 20.6 50 50 SW 10 17 29.73 1007 10 16 0.00 0.00
5:53 pm 17:53 Sunny 90 32.2 68 20 48 48 WSW 14 22 29.73 1007 10 16 0.00 0.00
6:53 pm 18:53 Sunny 88 31.1 70 21.1 55 55 SW 14 22 29.72 1006 10 16 0.00 0.00
7:53 pm 19:53 Sunny 85 29.4 70 21.1 61 61 SSW 10 17 29.70 1006 10 16 0.00 0.00
8:53 pm 20:53 Clear 82 27.8 70 21.1 67 67 SSW 8 13 29.72 1006 10 16 0.00 0.00
9:53 pm 21:53 Clear 81 27.2 70 21.1 69 69 SSW 8 13 29.73 1007 10 16 0.00 0.00
10:53 pm 22:53 Clear 81 27.2 72 22.2 74 74 SW 9 15 29.74 1007 10 16 0.00 0.00
11:53 pm 23:53 Partly Cloudy 81 27.2 72 22.2 74 74 SSW 8 13 29.74 1007 10 16 0.00 0.00

Powered by AerisWeather